Fort Knox, KY

12:08 AM EDT on July 28, 2016 (GMT -0400)
Godman Army Air Field

Weather History for KFTK - February, 2013

Change the Weather History Date:

Friday, February 22, 2013

  Actual Average Record
Temperature  
Mean Temperature 40 °F -  
Max Temperature 48 °F 46 °F 62 °F (2014)
Min Temperature 32 °F 29 °F 15 °F (1999)
Degree Days  
Heating Degree Days 25    
Moisture  
Dew Point 35 °F    
Average Humidity 92    
Maximum Humidity 100    
Minimum Humidity 66    
Precipitation  
Precipitation 0.09 in - - ()
Sea Level Pressure  
Sea Level Pressure 29.92 in    
Wind  
Wind Speed 7 mph (South)    
Max Wind Speed 17 mph    
Max Gust Speed 23 mph    
Visibility 6 miles    
Events Rain    
Averages and records for this station are not official NWS values.
T = Trace of Precipitation, MM = Missing Value Source: NWS Daily Summary

Daily Weather History Graph

Daily Weather History Graph

Search for Another Location

Airport or City:

Trip Planner

Search our weather history database for the weather conditions in past years. The results will help you decide how hot, cold, wet, or windy it might be!

Date:

Astronomy

Feb. 22, 2013 Rise Set
Actual Time 7:24 AM EST 6:30 PM EST
Civil Twilight 6:58 AM EST 6:57 PM EST
Nautical Twilight 6:27 AM EST 7:27 PM EST
Astronomical Twilight 5:57 AM EST 7:58 PM EST
Moon 3:43 PM EST (2/22) 5:07 AM EST (2/22)
Length of Visible Light 11h 59m
Length of Day
11h 05m
Waxing Gibbous, 90% of the Moon is Illuminated
Feb 22
Waxing Gibbous
Feb 25
Full
Mar 4
Last Quarter
Mar 11
New
Mar 19
First Quarter

Hourly Weather History & Observations

Time (EST) Temp. Windchill Dew Point Humidity Pressure Visibility Wind Dir Wind Speed Gust Speed Precip Events Conditions
12:16 AM 32.0 °F 27.5 °F 30.2 °F 93% 29.98 in 5.0 mi ENE 4.6 mph - N/A Rain Light Rain
12:29 AM 32.0 °F 26.4 °F 30.2 °F 93% 29.96 in 5.0 mi ENE 5.8 mph - N/A Rain Light Rain
12:35 AM 32.0 °F 27.5 °F 30.2 °F 93% 29.96 in 9.0 mi NE 4.6 mph - N/A   Overcast
12:47 AM 32.0 °F 25.6 °F 30.2 °F 93% 29.95 in 9.0 mi ENE 6.9 mph - N/A Rain Light Rain
12:54 AM 32.0 °F 25.6 °F 30.2 °F 93% 29.94 in 7.0 mi ENE 6.9 mph - N/A Rain Light Rain
12:55 AM 32.4 °F 26.9 °F 30.9 °F 94% 29.94 in 7.0 mi ENE 5.8 mph - 0.07 in Rain Light Rain
12:57 AM 32.0 °F 26.4 °F 30.2 °F 93% 29.94 in 6.0 mi ENE 5.8 mph - N/A   Overcast
1:05 AM 32.0 °F 27.5 °F 32.0 °F 100% 29.94 in 5.0 mi East 4.6 mph - N/A   Overcast
1:10 AM 32.0 °F 26.4 °F 32.0 °F 100% 29.94 in 5.0 mi East 5.8 mph - N/A   Overcast
1:20 AM 32.0 °F 26.4 °F 32.0 °F 100% 29.93 in 5.0 mi East 5.8 mph - N/A   Overcast
1:26 AM 32.0 °F 25.6 °F 32.0 °F 100% 29.92 in 8.0 mi East 6.9 mph - N/A   Overcast
1:34 AM 32.0 °F 25.6 °F 32.0 °F 100% 29.91 in 10.0 mi East 6.9 mph - N/A Rain Light Rain
1:36 AM 32.0 °F 25.6 °F 32.0 °F 100% 29.91 in 9.0 mi East 6.9 mph - N/A Rain Light Rain
1:38 AM 32.0 °F 25.6 °F 32.0 °F 100% 29.91 in 9.0 mi East 6.9 mph - N/A Rain Light Rain
1:48 AM 32.0 °F 25.6 °F 32.0 °F 100% 29.91 in 9.0 mi East 6.9 mph - N/A   Overcast
1:54 AM 32.0 °F 25.6 °F 32.0 °F 100% 29.91 in 8.0 mi East 6.9 mph - N/A Rain Light Rain
1:55 AM 32.7 °F 26.4 °F 31.5 °F 95% 29.91 in 7.0 mi East 6.9 mph - 0.00 in Rain Light Rain
2:10 AM 32.0 °F 25.6 °F 32.0 °F 100% 29.89 in 7.0 mi East 6.9 mph - N/A   Overcast
2:52 AM 33.8 °F 26.4 °F 32.0 °F 93% 29.87 in 7.0 mi East 9.2 mph - N/A   Overcast
2:55 AM 32.9 °F 24.7 °F 31.8 °F 96% 29.87 in 7.0 mi East 10.4 mph - 0.00 in   Overcast
3:23 AM 33.8 °F 27.0 °F 32.0 °F 93% 29.88 in 5.0 mi ESE 8.1 mph - N/A   Overcast
3:55 AM 33.3 °F 27.1 °F 32.2 °F 96% 29.87 in 4.0 mi East 6.9 mph - 0.01 in   Overcast
4:11 AM 33.8 °F 27.7 °F 32.0 °F 93% 29.87 in 2.5 mi ESE 6.9 mph - N/A   Overcast
4:25 AM 33.8 °F 27.7 °F 32.0 °F 93% 29.87 in 2.5 mi ESE 6.9 mph - N/A   Overcast
4:26 AM 33.8 °F 27.7 °F 32.0 °F 93% 29.87 in 2.5 mi ESE 6.9 mph - N/A   Overcast
4:28 AM 33.8 °F 27.7 °F 32.0 °F 93% 29.87 in 2.5 mi ESE 6.9 mph - N/A   Overcast
4:30 AM 33.8 °F 27.7 °F 32.0 °F 93% 29.87 in 3.0 mi ESE 6.9 mph - N/A   Overcast
4:39 AM 33.8 °F 27.7 °F 32.0 °F 93% 29.87 in 3.0 mi ESE 6.9 mph - N/A   Overcast
4:54 AM 33.8 °F 27.7 °F 32.0 °F 93% 29.86 in 3.0 mi ESE 6.9 mph - N/A   Overcast
4:55 AM 33.4 °F 27.3 °F 32.7 °F 97% 29.86 in 3.0 mi ESE 6.9 mph - 0.01 in   Overcast
4:58 AM 33.8 °F 27.0 °F 32.0 °F 93% 29.86 in 3.0 mi ESE 8.1 mph - N/A   Overcast
4:59 AM 33.8 °F 27.7 °F 32.0 °F 93% 29.86 in 3.0 mi ESE 6.9 mph - N/A   Overcast
5:02 AM 33.8 °F 27.0 °F 32.0 °F 93% 29.86 in 2.5 mi ESE 8.1 mph - N/A   Overcast
5:12 AM 33.8 °F 27.0 °F 32.0 °F 93% 29.86 in 3.0 mi ESE 8.1 mph - N/A   Overcast
5:55 AM 34.5 °F 31.6 °F 33.8 °F 97% 29.88 in 4.0 mi SE 3.5 mph - N/A   Overcast
6:25 AM 35.6 °F 31.7 °F 33.8 °F 93% 29.88 in 5.0 mi ESE 4.6 mph - N/A   Overcast
6:55 AM 36.0 °F 33.3 °F 35.4 °F 98% 29.89 in 4.0 mi SSE 3.5 mph - N/A   Overcast
6:57 AM 35.6 °F - 35.6 °F 100% 29.89 in 4.0 mi Calm Calm - N/A   Overcast
7:29 AM 35.6 °F 31.7 °F 35.6 °F 100% 29.90 in 2.5 mi SW 4.6 mph - N/A   Overcast
7:33 AM 35.6 °F 30.7 °F 35.6 °F 100% 29.91 in 1.8 mi SW 5.8 mph - N/A   Overcast
7:34 AM 37.4 °F 32.8 °F 35.6 °F 93% 29.91 in 1.5 mi SSW 5.8 mph - N/A   Overcast
7:36 AM 37.4 °F 32.8 °F 35.6 °F 93% 29.91 in 1.2 mi SSW 5.8 mph - N/A   Overcast
7:39 AM 37.4 °F 32.8 °F 37.4 °F 100% 29.91 in 1.0 mi SSW 5.8 mph - N/A   Overcast
7:43 AM 37.4 °F 32.8 °F 37.4 °F 100% 29.91 in 0.8 mi SSW 5.8 mph - N/A   Overcast
7:55 AM 38.3 °F 33.2 °F 37.9 °F 99% 29.91 in 0.8 mi SW 6.9 mph - N/A   Overcast
7:56 AM 39.2 °F 35.0 °F 37.4 °F 93% 29.91 in 1.0 mi SW 5.8 mph - N/A   Overcast
7:57 AM 39.2 °F 35.0 °F 37.4 °F 93% 29.91 in 1.0 mi SW 5.8 mph - N/A   Overcast
7:58 AM 39.2 °F 34.2 °F 37.4 °F 93% 29.91 in 1.2 mi SW 6.9 mph - N/A   Overcast
8:00 AM 39.2 °F 33.6 °F 39.2 °F 100% 29.91 in 1.5 mi SW 8.1 mph - N/A   Overcast
8:01 AM 39.2 °F 33.6 °F 39.2 °F 100% 29.92 in 1.8 mi SW 8.1 mph - N/A   Overcast
8:02 AM 39.2 °F 33.6 °F 39.2 °F 100% 29.92 in 2.0 mi SW 8.1 mph - N/A   Overcast
8:04 AM 39.2 °F 33.6 °F 39.2 °F 100% 29.92 in 2.5 mi SW 8.1 mph - N/A   Overcast
8:05 AM 39.2 °F 33.6 °F 39.2 °F 100% 29.92 in 3.0 mi SW 8.1 mph - N/A   Overcast
8:09 AM 41.0 °F 35.2 °F 39.2 °F 93% 29.92 in 5.0 mi SW 9.2 mph - N/A   Overcast
8:10 AM 41.0 °F 34.7 °F 39.2 °F 93% 29.92 in 6.0 mi SSW 10.4 mph - N/A   Overcast
8:12 AM 41.0 °F 35.2 °F 41.0 °F 100% 29.93 in 7.0 mi SW 9.2 mph - N/A   Overcast
8:14 AM 41.0 °F 35.2 °F 41.0 °F 100% 29.93 in 7.0 mi SW 9.2 mph - N/A   Overcast
8:16 AM 41.0 °F 34.3 °F 41.0 °F 100% 29.93 in 8.0 mi SW 11.5 mph - N/A   Overcast
8:18 AM 41.0 °F 34.7 °F 41.0 °F 100% 29.93 in 9.0 mi SW 10.4 mph - N/A   Overcast
8:21 AM 41.0 °F 34.7 °F 41.0 °F 100% 29.93 in 10.0 mi SW 10.4 mph - N/A   Overcast
8:31 AM 41.0 °F 33.5 °F 41.0 °F 100% 29.93 in 10.0 mi SW 13.8 mph - N/A   Overcast
8:55 AM 41.9 °F 34.0 °F 41.0 °F 97% 29.94 in 10.0 mi SW 16.1 mph - N/A   Overcast
8:58 AM 42.8 °F 34.8 °F 41.0 °F 93% 29.94 in 10.0 mi SW 17.3 mph - N/A   Overcast
9:55 AM 42.3 °F 35.5 °F 38.1 °F 85% 29.96 in 10.0 mi SW 12.7 mph - N/A   Overcast
10:55 AM 44.6 °F 37.2 °F 39.6 °F 82% 29.97 in 10.0 mi WSW 17.3 mph - N/A   Overcast
11:55 AM 46.0 °F 39.6 °F 39.4 °F 78% 29.98 in 10.0 mi WSW 15.0 mph 21.9 mph N/A   Overcast
12:55 PM 46.8 °F - 39.4 °F 75% 29.99 in 10.0 mi SW 17.3 mph 23.0 mph N/A   Overcast
1:55 PM 46.4 °F 39.8 °F 39.2 °F 76% 29.97 in 10.0 mi WSW 16.1 mph 21.9 mph N/A   Overcast
2:55 PM 48.2 °F - 39.7 °F 73% 29.96 in 10.0 mi WSW 13.8 mph 19.6 mph N/A   Overcast
3:55 PM 48.2 °F - 38.8 °F 70% 29.96 in 10.0 mi WSW 13.8 mph - N/A   Overcast
4:45 PM 48.2 °F - 39.2 °F 71% 29.95 in 10.0 mi West 11.5 mph - N/A   Scattered Clouds
4:55 PM 46.6 °F - 38.1 °F 72% 29.95 in 10.0 mi West 11.5 mph - N/A   Scattered Clouds
5:11 PM 48.2 °F - 37.4 °F 66% 29.95 in 10.0 mi West 10.4 mph - N/A   Mostly Cloudy
5:13 PM 48.2 °F - 37.4 °F 66% 29.95 in 10.0 mi West 11.5 mph - N/A   Mostly Cloudy
5:55 PM 45.3 °F 40.1 °F 37.4 °F 74% 29.96 in 10.0 mi West 10.4 mph - N/A   Clear
6:55 PM 40.5 °F 37.3 °F 35.4 °F 82% 29.97 in 10.0 mi West 4.6 mph - N/A   Clear
7:55 PM 38.8 °F 35.4 °F 34.9 °F 86% 29.98 in 10.0 mi West 4.6 mph - N/A   Clear
8:55 PM 36.7 °F 32.9 °F 33.8 °F 89% 29.99 in 10.0 mi West 4.6 mph - N/A   Clear
9:55 PM 35.8 °F 33.0 °F 33.4 °F 91% 30.01 in 10.0 mi SSW 3.5 mph - N/A   Clear
10:55 PM 35.1 °F 30.1 °F 33.4 °F 94% 30.02 in 10.0 mi SSW 5.8 mph - N/A   Clear
11:48 PM 37.4 °F 33.8 °F 33.8 °F 87% 30.01 in 10.0 mi West 4.6 mph - N/A   Mostly Cloudy
11:55 PM 36.5 °F 31.8 °F 33.8 °F 90% 30.01 in 10.0 mi West 5.8 mph - N/A   Mostly Cloudy